Mount Pocono, PA

8:15 AM EST on February 12, 2016 (GMT -0500)
Pocono Mountains Municipal

Weather History for KMPO - March, 2013

Change the Weather History Date:

Monday, March 11, 2013

  Actual Average Record
Temperature  
Mean Temperature 39 °F 32 °F  
Max Temperature 47 °F 40 °F 66 °F (1977)
Min Temperature 31 °F 23 °F 0 °F (1972)
Degree Days  
Heating Degree Days 26 33  
Month to date heating degree days 369 382  
Since 1 July heating degree days 5197 5505  
Cooling Degree Days 0 0  
Month to date cooling degree days 0 0  
Year to date cooling degree days 0 0  
Moisture  
Dew Point 34 °F    
Average Humidity 80    
Maximum Humidity 100    
Minimum Humidity 60    
Precipitation  
Precipitation 0.00 in 0.10 in 3.68 in (1952)
Month to date precipitation 0.35 0.92  
Year to date precipitation 3.88 6.18  
Sea Level Pressure  
Sea Level Pressure 30.13 in    
Wind  
Wind Speed 10 mph (SSE)    
Max Wind Speed 22 mph    
Max Gust Speed 29 mph    
Visibility 6 miles    
Events Fog    
T = Trace of Precipitation, MM = Missing Value Source: NWS Daily Summary

Daily Weather History Graph

Daily Weather History Graph

Search for Another Location

Airport or City:

Trip Planner

Search our weather history database for the weather conditions in past years. The results will help you decide how hot, cold, wet, or windy it might be!

Date:

Astronomy

Mar. 11, 2013 Rise Set
Actual Time 7:19 AM EDT 7:04 PM EDT
Civil Twilight 6:52 AM EDT 7:31 PM EDT
Nautical Twilight 6:20 AM EDT 8:03 PM EDT
Astronomical Twilight 5:47 AM EDT 8:35 PM EDT
Moon 6:51 AM EDT (3/11) 7:14 PM EDT (3/11)
Length of Visible Light 12h 39m
Length of Day
11h 44m
Waning Crescent, 0% of the Moon is Illuminated
Mar 11
Waning Crescent
Mar 11
New
Mar 19
First Quarter
Mar 27
Full
Apr 3
Last Quarter

Hourly Weather History & Observations

Time (EDT) Temp. Windchill Dew Point Humidity Pressure Visibility Wind Dir Wind Speed Gust Speed Precip Events Conditions
12:53 AM 35.1 °F 29.3 °F 30.9 °F 85% 30.24 in 9.0 mi SSE 6.9 mph - N/A   Clear
1:53 AM 34.0 °F 29.8 °F 30.0 °F 85% 30.22 in 10.0 mi SSE 4.6 mph - N/A   Clear
2:53 AM 33.1 °F 26.9 °F 30.0 °F 89% 30.21 in 10.0 mi South 6.9 mph - N/A   Clear
3:53 AM 32.0 °F 27.5 °F 30.0 °F 92% 30.20 in 9.0 mi South 4.6 mph - N/A   Partly Cloudy
4:53 AM 32.0 °F 24.8 °F 30.0 °F 92% 30.18 in - SSE 8.1 mph - N/A   Clear
5:02 AM 32.0 °F 24.8 °F 30.2 °F 93% 30.14 in 2.0 mi SE 8.1 mph - N/A   Partly Cloudy
5:05 AM 30.2 °F 23.4 °F 30.2 °F 100% 30.14 in 1.0 mi SE 6.9 mph - N/A   Mist
5:12 AM 30.2 °F 23.4 °F 30.2 °F 100% 30.14 in 0.5 mi SE 6.9 mph - N/A Fog Light Freezing Fog
5:21 AM 30.2 °F 24.3 °F 30.2 °F 100% 30.14 in 0.2 mi SE 5.8 mph - N/A Fog Light Freezing Fog
5:32 AM 30.2 °F 25.4 °F 30.2 °F 100% 30.14 in 1.0 mi South 4.6 mph - N/A   Overcast
5:49 AM 30.2 °F 23.4 °F 28.4 °F 93% 30.14 in 3.0 mi South 6.9 mph - N/A   Mostly Cloudy
5:50 AM 30.9 °F 24.3 °F 28.9 °F 92% 30.19 in 4.0 mi South 6.9 mph - N/A   Mostly Cloudy
5:59 AM 30.2 °F 24.3 °F 28.4 °F 93% 30.14 in 5.0 mi South 5.8 mph - N/A   Scattered Clouds
6:17 AM 32.0 °F 25.6 °F 30.2 °F 93% 30.14 in 4.0 mi SSE 6.9 mph - N/A   Mostly Cloudy
6:39 AM 32.0 °F 24.2 °F 30.2 °F 93% 30.14 in 1.5 mi South 9.2 mph - N/A   Overcast
6:49 AM 32.0 °F 26.4 °F 30.2 °F 93% 30.14 in 0.8 mi South 5.8 mph - N/A   Overcast
6:53 AM 32.0 °F 26.4 °F 30.9 °F 96% 30.18 in 0.8 mi South 5.8 mph - N/A   Overcast
7:53 AM 33.1 °F 27.7 °F 32.0 °F 96% 30.18 in 0.2 mi SSW 5.8 mph 24.2 mph N/A Fog Fog
8:00 AM 33.8 °F 25.8 °F 32.0 °F 93% 30.14 in 0.5 mi South 10.4 mph - N/A Fog Fog
8:09 AM 33.8 °F 27.0 °F 32.0 °F 93% 30.14 in 1.2 mi South 8.1 mph - N/A   Overcast
8:39 AM 33.8 °F 24.3 °F 33.8 °F 100% 30.15 in 2.5 mi SSW 13.8 mph - N/A   Overcast
8:50 AM 33.8 °F 26.4 °F 33.8 °F 100% 30.16 in 4.0 mi SSW 9.2 mph - N/A   Overcast
8:53 AM 34.0 °F 26.6 °F 33.1 °F 96% 30.20 in 5.0 mi South 9.2 mph - N/A   Overcast
9:18 AM 35.6 °F 29.2 °F 33.8 °F 93% 30.15 in 10.0 mi South 8.1 mph - N/A   Scattered Clouds
9:53 AM 37.0 °F 32.4 °F 33.1 °F 86% 30.19 in 10.0 mi South 5.8 mph - N/A   Partly Cloudy
10:53 AM 39.9 °F 35.1 °F 33.1 °F 77% 30.19 in 10.0 mi SSE 6.9 mph - N/A   Scattered Clouds
11:53 AM 39.9 °F 33.9 °F 34.0 °F 79% 30.18 in 10.0 mi SE 9.2 mph - N/A   Overcast
12:53 PM 42.1 °F 36.6 °F 35.1 °F 76% 30.17 in 10.0 mi SSE 9.2 mph - N/A   Mostly Cloudy
1:53 PM 44.1 °F 40.1 °F 36.0 °F 73% 30.16 in 10.0 mi Variable 6.9 mph - N/A   Scattered Clouds
2:53 PM 44.1 °F 39.0 °F 37.0 °F 76% 30.13 in 10.0 mi SE 9.2 mph - N/A   Partly Cloudy
3:53 PM 45.0 °F 38.9 °F 37.0 °F 74% 30.10 in 10.0 mi SSE 12.7 mph - N/A   Mostly Cloudy
4:53 PM 46.0 °F 41.0 °F 34.0 °F 63% 30.09 in 10.0 mi SSE 10.4 mph - N/A   Partly Cloudy
5:43 PM 46.4 °F 40.1 °F 33.8 °F 62% 30.03 in 10.0 mi SE 15.0 mph 20.7 mph N/A   Mostly Cloudy
5:53 PM 46.9 °F - 35.1 °F 63% 30.07 in 10.0 mi SE 12.7 mph - N/A   Overcast
6:53 PM 46.9 °F - 36.0 °F 66% 30.06 in - SSE 15.0 mph - N/A   Overcast
7:53 PM 46.9 °F - 36.0 °F 66% 30.07 in 10.0 mi SSE 9.2 mph - N/A   Overcast
8:53 PM 46.0 °F 40.2 °F 39.9 °F 79% 30.05 in - SE 12.7 mph - N/A   Overcast
9:11 PM 46.4 °F 41.1 °F 39.2 °F 76% 30.01 in - SSE 11.5 mph - N/A   Overcast
9:50 PM 46.4 °F 41.1 °F 42.8 °F 87% 30.03 in - SSE 11.5 mph - N/A   Overcast
9:53 PM 46.0 °F 39.3 °F 42.1 °F 86% 30.06 in - South 16.1 mph 21.9 mph N/A   Overcast
10:53 PM 46.0 °F 39.3 °F 44.1 °F 93% 30.02 in - SSE 16.1 mph 26.5 mph N/A   Overcast
11:53 PM 46.9 °F - 44.1 °F 90% 30.01 in 10.0 mi South 13.8 mph 26.5 mph N/A   Overcast